www.pogodaiklimat.ru
Время
и дата
10:53 15.04
11:53 15.04
12:53 15.04
13:53 15.04
14:53 15.04
15:53 15.04
16:53 15.04
17:53 15.04
18:53 15.04
19:53 15.04
20:53 15.04
21:53 15.04
22:53 15.04
23:53 15.04
00:53 16.04
01:53 16.04
02:53 16.04
03:53 16.04
04:53 16.04
05:53 16.04
06:53 16.04
07:53 16.04
08:53 16.04
09:53 16.04
10:53 16.04
11:53 16.04
12:53 16.04
13:53 16.04
14:53 16.04
15:53 16.04
16:53 16.04
17:53 16.04
18:53 16.04
19:53 16.04
20:53 16.04
21:53 16.04
22:53 16.04
23:53 16.04
00:53 17.04
01:53 17.04
02:53 17.04
03:53 17.04
04:53 17.04
05:53 17.04
06:53 17.04
07:53 17.04
08:53 17.04
09:53 17.04
Ветер
(напр.,м/с)
Видим. Явления Облачность Т
(С)
Тd
(С)
f
(%)
Тe
(С)
Тes
(С)
Комфортность P
(гПа)
Po
(гПа)
Тmin
(С)
Tmax
(С)
R
(мм)
R24
(мм)
S
(см)
ЮВ 4 16 км ясно +15.0 +10.0 72 +14 +24 1020.8 1020.5
ЮВ 3 16 км ясно +15.6 +11.1 75 +15 +30 опасность
простуды
1020.3 1019.8
ЮЗ 3 16 км 2/2 1200 м +17.8 +11.1 65 +18 +30 опасность
простуды
1019.1 1018.8
ЮВ 5 16 км ясно +16.1 +11.7 75 +15 +24 1018.8 1018.5
ЮВ 4 16 км ясно +16.7 +12.2 75 +16 +26 1017.5 1017.1
ЮВ 3 16 км ясно +16.7 +12.2 75 +16 +25 1017.0 1016.5 +15.0 +18.3
В 3 16 км ясно +16.1 +12.2 78 +16 +20 1016.3 1015.8
ЮВ 3 16 км ясно +15.6 +12.2 80 +15 +17 1016.1 1015.8
ЮВ 2 16 км ясно +13.9 +12.2 89 +13 +13 1016.2 1015.8
штиль 0 16 км ясно +13.9 +12.2 89 +13 +13 1016.6 1016.1
З 2 16 км ясно +11.7 +11.1 96 +10 +10 1017.0 1016.5
С 2 16 км ясно +12.2 +11.1 93 +11 +11 1017.4 1017.1 +11.7 +16.7
штиль 0 16 км ясно +11.1 +10.0 93 +10 +10 1017.4 1017.1
СЗ 2 16 км ясно +10.0 +9.4 96 +8 +8 1017.0 1016.5
В 2 16 км ясно +10.6 +8.9 89 +9 +9 1016.7 1016.5
штиль 0 16 км ясно +9.4 +8.9 97 +8 +8 1016.5 1016.1
С 2 16 км ясно +8.9 +7.8 93 +7 +7 1016.4 1016.1
штиль 0 16 км ясно +8.9 +7.8 93 +8 +8 1016.2 1015.8 +8.3 +12.2
штиль 0 16 км ясно +9.4 +8.3 93 +9 +9 1016.4 1016.1
В 2 16 км ясно +8.9 +7.2 89 +7 +7 1016.7 1016.5
штиль 0 16 км ясно +12.8 +9.4 80 +12 +13 1017.5 1017.1
В 2 16 км ясно +16.1 +11.1 72 +16 +18 1017.6 1017.1
ЮВ 4 16 км ясно +17.2 +12.8 75 +17 +21 1017.9 1017.5
ЮВ 4 16 км ясно +16.7 +12.8 78 +16 +23 1018.0 1017.5 +7.8 +17.8
ЮВ 3 16 км ясно +17.8 +10.6 63 +18 +30 опасность
простуды
1017.1 1016.8
ЮЗ 3 16 км ясно +19.4 +11.7 61 +21 +35 комфорт 1016.6 1016.1
З 5 16 км ясно +19.4 +11.7 61 +20 +30 1016.7 1016.5
З 6 16 км ясно +19.4 +10.6 57 +20 +27 1016.3 1015.8
ЮЗ 5 16 км ясно +20.6 +11.1 54 +22 +30 комфорт 1015.6 1015.1
З 6 16 км ясно +20.0 +10.0 53 +21 +25 комфорт 1015.4 1015.1 +16.7 +20.6
З 4 16 км ясно +20.0 +10.0 53 +21 +25 комфорт 1015.1 1014.8
ЮВ 2 16 км ясно +17.2 +13.9 81 +18 +20 1015.1 1014.8
ЮВ 3 14 км ясно +13.9 +13.3 96 +13 +13 1014.8 1014.4
В 2 13 км ясно +14.4 +13.3 93 +14 +14 1015.3 1014.8
ЮВ 2 13 км ясно +13.9 +13.3 96 +13 +13 1015.7 1015.1
В 2 13 км ясно +13.9 +13.3 96 +13 +13 1015.7 1015.1 +13.9 +20.6
штиль 0 13 км ясно +13.9 +12.8 93 +13 +13 1015.9 1015.4
штиль 0 16 км ясно +12.2 +11.7 97 +12 +12 1015.8 1015.4
СВ 2 16 км ясно +11.7 +11.1 96 +10 +10 1015.2 1014.8
СВ 3 16 км ясно +11.7 +10.6 93 +10 +10 1014.9 1014.4
СВ 2 16 км ясно +11.1 +10.0 93 +10 +10 1015.1 1014.8
В 3 14 км ясно +11.1 +10.6 97 +9 +9 1015.1 1014.8 +10.6 +13.9
В 2 16 км ясно +10.6 +10.0 96 +9 +9 1015.0 1014.8
штиль 0 16 км ясно +10.6 +9.4 92 +10 +10 1016.1 1015.8
штиль 0 16 км 5/0 6000 m
[Ac]
+15.0 +11.7 81 +15 +15 1016.2 1015.8
ЮВ 4 11 км 5/2 90 m
[Ac]
+15.0 +13.9 93 +14 +15 1016.3 1015.8
ЮВ 5 8 км дымка 2/2 90 м +15.0 +13.9 93 +13 +16 1016.3 1015.8
ЮВ 5 8 км дымка 5/2 90 m
[Ac]
+15.6 +13.9 90 +14 +18 1016.7 1016.5 +9.4 +16.1
Местоположение метеостанции Santa Barbara Municipal Airport: широта 34.4258 долгота -119.8425 высота над уровнем моря 3 м.
В архиве по умолчанию представлена погода в Санта-Барбаре за последние 1-2 суток. Обновление информации о фактической погоде в базе происходит ежечасно! Архивные данные за месяц целиком и за предыдущие месяцы Вы можете получить, выбрав интересующий диапазон дат из раскрывающегося списка и нажав кнопку "Ввод!".
Внимание! Архив погоды МЕТАР в базе сайта по станциям, не включенным в климатический монитор, хранится не более 60 дней. Нет смысла пытаться выбрать более раннюю дату.
*Определитесь, кто Вы:
Внимание! Время в таблицах - местное (без учета летнего времени). Для получения всемирного времени необходимо вычесть поправку, которая равна -8 ч.
Смотрите также архив погоды в соседних городах и на ближайших метеорологических станциях:
Партнеры нашего сайта:      
Пояснения к столбцам:
  • Ветер - указаны скорость ветра в м/с - средняя за 10 мин, порывы в срок и между сроками (в фигурных скобках) и направление, откуда дует ветер: С - северный,
  • СВ - северо-восточный, В - восточный, ЮВ - юго-восточный, Ю - южный, ЮЗ - юго-западный, З - западный, СЗ - северо-западный.
  • Видимость - горизонтальная дальность видимости в метрах или километрах. При видимости от 1 до 10 км при отсутствии осадков обычно наблюдается дымка, при ухудшении видимости до 1 км и менее - туман. В сухую погоду видимость может ухудшаться дымом, пылью или мглою.
  • Явления - указаны атмосферные явления, наблюдавшиеся в срок или в последний час перед сроком; фигурными скобками обозначены явления, наблюдавшиеся между сроками (за 1-3 часа до срока); квадратными скобками обозначены град или гололедные отложения с указанием их диаметра в мм.
  • Облачность - указаны через наклонную черту общая и нижняя облачность в баллах и высота нижней границы облаков в метрах; квадратными скобками обозначены формы облаков: Ci - перистые, Cs - перисто-слоистые, Cc - перисто-кучевые, Ac - высококучевые, As - высокослоистые, Sc - слоисто-кучевые, Ns - слоисто-дождевые, Cu - кучевые, Cb - кучево-дождевые. Подробнее классификацию облаков см. в Атласе облаков (PDF).
  • T - Температура воздуха - температура, измеренная на высоте 2 м над землей.
  • Td - Температура точки росы - температура, при понижении до которой содержащийся в воздухе водяной пар достигнет насыщения.
  • f - Относительная влажность воздуха - влажноcть воздуха, измеренная на высоте 2 м над землей.
  • Te - Эффективная температура - температура, которую ощущает одетый по сезону человек в тени. Характеристика душности погоды. При расчете учитывается влияние влажности воздуха и скорости ветра на теплоощущения человека.
  • Tes - Эффективная температура на солнце - температура, которую ощущает человек, с поправкой на солнечный нагрев. Характеристика знойности погоды. Зависит от высоты солнца над горизонтом, облачности и скорости ветра. Ночью, в пасмурную погоду, а также при ветре 12 м/с и более поправка равна нулю.
  • P - Атмосферное давление - приведенное к уровню моря атмосферное давление.
  • Po - Атмосферное давление - измеренное на уровне метеостанции атмосферное давление.
  • Tmin - Минимальная температура - минимум температуры воздуха на высоте 2 м над землей.
  • Tmax - Максимальная температура - максимум температуры воздуха на высоте 2 м над землей.
  • R - Количество осадков - Количество выпавших осадков за период времени, мм. При наведении курсора мыши на число - период времени, за который выпало указанное количество осадков.
  • R24 - Количество осадков - Количество выпавших осадков за 24 часа, мм.
  • S - Снежный покров - Высота снежного покрова, см. При наведении курсора мыши на число - состояние снежного покрова и степень покрытия местности в баллах.